Time,TemperatureF,DewpointF,PressureIn,WindDirection,WindDirectionDegrees,WindSpeedMPH,WindSpeedGustMPH,Humidity,HourlyPrecipIn,Conditions,Clouds,dailyrainin,SoftwareType,DateUTC
2013-04-10 00:00:00,36.4,23.5,30.18,ENE,68,0.0,3.0,59,0.00,,SKC,0.00,VWS V14.01,2013-04-10 05:00:00,
2013-04-10 00:11:00,36.2,23.0,30.18,NNE,24,0.0,-999.0,59,-99.99,,,0.00,weatherlink.com 1.10,2013-04-10 05:11:00,
2013-04-10 00:26:00,36.1,23.0,30.18,NW,322,0.0,-999.0,59,-99.99,,,0.00,weatherlink.com 1.10,2013-04-10 05:26:00,
2013-04-10 00:30:00,36.1,23.2,30.18,North,0,1.0,6.0,59,0.00,,SKC,0.00,VWS V14.01,2013-04-10 05:30:00,
2013-04-10 00:41:00,36.0,23.0,30.18,NE,56,0.0,-999.0,59,-99.99,,,0.00,weatherlink.com 1.10,2013-04-10 05:41:00,
2013-04-10 00:56:00,35.9,23.0,30.18,NE,49,0.0,-999.0,59,-99.99,,,0.00,weatherlink.com 1.10,2013-04-10 05:56:00,
2013-04-10 01:00:00,35.9,23.0,30.18,NNE,22,1.0,5.0,59,0.00,,SKC,0.00,VWS V14.01,2013-04-10 06:00:00,
2013-04-10 01:12:00,35.7,22.0,30.19,WNW,303,4.0,-999.0,59,-99.99,,,0.00,weatherlink.com 1.10,2013-04-10 06:12:00,
2013-04-10 01:27:00,35.7,22.0,30.20,NNW,340,4.0,-999.0,58,-99.99,,,0.00,weatherlink.com 1.10,2013-04-10 06:27:00,
2013-04-10 01:30:00,35.6,22.3,30.20,NNW,338,1.0,12.0,58,0.00,,SKC,0.00,VWS V14.01,2013-04-10 06:30:00,
2013-04-10 01:42:00,35.5,22.0,30.20,NNW,330,0.0,-999.0,58,-99.99,,,0.00,weatherlink.com 1.10,2013-04-10 06:42:00,
2013-04-10 01:57:00,35.5,21.0,30.19,North,360,1.0,-999.0,57,-99.99,,,0.00,weatherlink.com 1.10,2013-04-10 06:57:00,
2013-04-10 02:00:00,35.5,22.2,30.19,NW,315,1.0,12.0,58,0.00,,SKC,0.00,VWS V14.01,2013-04-10 07:00:00,
2013-04-10 02:12:00,35.3,22.0,30.16,NE,44,0.0,-999.0,58,-99.99,,,0.00,weatherlink.com 1.10,2013-04-10 07:12:00,
2013-04-10 02:27:00,35.0,22.0,30.12,NE,38,1.0,-999.0,60,-99.99,,,0.00,weatherlink.com 1.10,2013-04-10 07:27:00,
2013-04-10 02:30:00,35.0,22.5,30.12,North,0,1.0,10.0,60,0.00,,SKC,0.00,VWS V14.01,2013-04-10 07:30:00,
2013-04-10 02:42:00,34.7,22.0,30.08,ENE,61,0.0,-999.0,61,-99.99,,,0.00,weatherlink.com 1.10,2013-04-10 07:42:00,
2013-04-10 02:57:00,34.3,25.0,30.08,NNW,346,4.0,-999.0,69,-99.99,,,0.00,weatherlink.com 1.10,2013-04-10 07:57:00,
2013-04-10 03:00:00,34.2,25.1,30.08,NNE,22,3.0,14.0,69,0.00,,SKC,0.00,VWS V14.01,2013-04-10 08:00:00,
2013-04-10 03:12:00,34.0,25.0,30.08,NNE,20,5.0,-999.0,69,-99.99,,,0.00,weatherlink.com 1.10,2013-04-10 08:12:00,
2013-04-10 03:27:00,33.7,25.0,30.10,North,355,0.0,-999.0,69,-99.99,,,0.00,weatherlink.com 1.10,2013-04-10 08:27:00,
2013-04-10 03:30:00,33.7,24.6,30.10,NNW,338,2.0,15.0,69,0.00,,SKC,0.00,VWS V14.01,2013-04-10 08:30:00,
2013-04-10 03:57:00,33.5,25.0,30.15,NW,311,1.0,-999.0,70,-99.99,,,0.00,weatherlink.com 1.10,2013-04-10 08:57:00,
2013-04-10 04:00:00,33.5,24.8,30.15,NW,315,2.0,11.0,70,0.00,,SKC,0.00,VWS V14.01,2013-04-10 09:00:00,
2013-04-10 04:12:00,33.5,25.0,30.14,NW,317,1.0,-999.0,71,-99.99,,,0.00,weatherlink.com 1.10,2013-04-10 09:12:00,
2013-04-10 04:27:00,33.4,25.0,30.12,NNW,347,2.0,-999.0,70,-99.99,,,0.00,weatherlink.com 1.10,2013-04-10 09:27:00,
2013-04-10 04:30:00,33.3,24.6,30.11,NW,315,2.0,10.0,70,0.00,,SKC,0.00,VWS V14.01,2013-04-10 09:30:00,
2013-04-10 04:42:00,33.2,24.0,30.12,NE,34,5.0,-999.0,69,-99.99,,,0.00,weatherlink.com 1.10,2013-04-10 09:42:00,
2013-04-10 04:57:00,33.0,23.0,30.12,NNE,19,0.0,-999.0,68,-99.99,,,0.00,weatherlink.com 1.10,2013-04-10 09:57:00,
2013-04-10 05:00:00,33.1,23.7,30.12,NNW,338,2.0,9.0,68,0.00,,SKC,0.00,VWS V14.01,2013-04-10 10:00:00,
2013-04-10 05:12:00,33.0,23.0,30.14,NNE,23,0.0,-999.0,68,-99.99,,,0.00,weatherlink.com 1.10,2013-04-10 10:12:00,
2013-04-10 05:27:00,33.0,23.0,30.16,NW,322,0.0,-999.0,68,-99.99,,,0.00,weatherlink.com 1.10,2013-04-10 10:27:00,
2013-04-10 05:30:00,33.0,24.0,30.16,NNW,338,2.0,11.0,69,0.00,,SKC,0.00,VWS V14.01,2013-04-10 10:30:00,
2013-04-10 05:42:00,32.9,24.0,30.15,NW,321,5.0,-999.0,69,-99.99,,,0.00,weatherlink.com 1.10,2013-04-10 10:42:00,
2013-04-10 05:57:00,32.6,23.0,30.10,East,86,1.0,-999.0,69,-99.99,,,0.00,weatherlink.com 1.10,2013-04-10 10:57:00,
2013-04-10 06:00:00,32.6,23.6,30.10,NNW,338,2.0,9.0,69,0.00,,SKC,0.00,VWS V14.01,2013-04-10 11:00:00,
2013-04-10 06:12:00,32.3,24.0,30.08,NNE,26,0.0,-999.0,70,-99.99,,,0.00,weatherlink.com 1.10,2013-04-10 11:12:00,
2013-04-10 06:27:00,32.1,24.0,30.07,NNW,338,0.0,-999.0,71,-99.99,,,0.00,weatherlink.com 1.10,2013-04-10 11:27:00,
2013-04-10 06:30:00,32.1,23.4,30.07,NNE,22,2.0,14.0,70,0.00,,SKC,0.00,VWS V14.01,2013-04-10 11:30:00,
2013-04-10 06:42:00,32.1,23.0,30.09,NE,46,0.0,-999.0,70,-99.99,,,0.00,weatherlink.com 1.10,2013-04-10 11:42:00,
2013-04-10 06:57:00,32.2,23.0,30.09,NW,325,2.0,-999.0,69,-99.99,,,0.00,weatherlink.com 1.10,2013-04-10 11:57:00,
2013-04-10 07:00:00,32.2,23.2,30.08,NNE,22,2.0,13.0,69,0.00,,SKC,0.00,VWS V14.01,2013-04-10 12:00:00,
2013-04-10 07:12:00,32.2,23.0,30.09,NNW,340,5.0,-999.0,69,-99.99,,,0.00,weatherlink.com 1.10,2013-04-10 12:12:00,
2013-04-10 07:27:00,32.3,23.0,30.10,NNE,26,5.0,-999.0,69,-99.99,,,0.00,weatherlink.com 1.10,2013-04-10 12:27:00,
2013-04-10 07:30:00,32.3,23.3,30.10,North,0,2.0,13.0,69,0.00,,SKC,0.00,VWS V14.01,2013-04-10 12:30:00,
2013-04-10 07:42:00,32.4,23.0,30.09,NNW,336,0.0,-999.0,68,-99.99,,,0.00,weatherlink.com 1.10,2013-04-10 12:42:00,
2013-04-10 07:57:00,32.6,23.0,30.10,North,5,3.0,-999.0,67,-99.99,,,0.00,weatherlink.com 1.10,2013-04-10 12:57:00,
2013-04-10 08:00:00,32.7,23.0,30.10,NNW,338,1.0,7.0,67,0.00,,SKC,0.00,VWS V14.01,2013-04-10 13:00:00,
2013-04-10 08:12:00,32.9,23.0,30.09,East,83,0.0,-999.0,66,-99.99,,,0.00,weatherlink.com 1.10,2013-04-10 13:12:00,
2013-04-10 08:27:00,33.4,22.0,30.10,NNE,13,1.0,-999.0,64,-99.99,,,0.00,weatherlink.com 1.10,2013-04-10 13:27:00,
2013-04-10 08:30:00,33.5,22.6,30.10,NNW,338,2.0,10.0,64,0.00,,SKC,0.00,VWS V14.01,2013-04-10 13:30:00,
2013-04-10 08:42:00,33.9,22.0,30.11,NE,48,0.0,-999.0,63,-99.99,,,0.00,weatherlink.com 1.10,2013-04-10 13:42:00,
2013-04-10 08:58:00,34.6,23.0,30.11,NNW,332,0.0,-999.0,63,-99.99,,,0.00,weatherlink.com 1.10,2013-04-10 13:58:00,
2013-04-10 09:00:00,34.6,23.3,30.12,NNW,338,2.0,13.0,63,0.00,,SKC,0.00,VWS V14.01,2013-04-10 14:00:00,
2013-04-10 09:13:00,35.4,23.0,30.12,North,360,1.0,-999.0,61,-99.99,,,0.00,weatherlink.com 1.10,2013-04-10 14:13:00,
2013-04-10 09:28:00,35.3,23.0,30.12,ENE,75,11.0,-999.0,60,-99.99,,,0.00,weatherlink.com 1.10,2013-04-10 14:28:00,
2013-04-10 09:30:00,35.2,22.7,30.11,NE,45,3.0,13.0,60,0.00,,SKC,0.00,VWS V14.01,2013-04-10 14:30:00,
2013-04-10 09:43:00,35.4,23.0,30.11,North,351,4.0,-999.0,60,-99.99,,,0.00,weatherlink.com 1.10,2013-04-10 14:43:00,
2013-04-10 09:58:00,36.3,23.0,30.09,North,355,5.0,-999.0,60,-99.99,,,0.00,weatherlink.com 1.10,2013-04-10 14:58:00,
2013-04-10 10:00:00,36.3,23.0,30.09,East,90,4.0,16.0,58,0.00,,SKC,0.00,VWS V14.01,2013-04-10 15:00:00,
2013-04-10 10:13:00,36.8,23.0,30.11,North,350,4.0,-999.0,58,-99.99,,,0.00,weatherlink.com 1.10,2013-04-10 15:13:00,
2013-04-10 10:28:00,36.7,24.0,30.11,NE,56,6.0,-999.0,61,-99.99,,,0.00,weatherlink.com 1.10,2013-04-10 15:28:00,
2013-04-10 10:30:00,36.6,22.8,30.11,NNE,22,3.0,13.0,57,0.00,,SKC,0.00,VWS V14.01,2013-04-10 15:30:00,
2013-04-10 10:43:00,36.2,23.0,30.11,ENE,59,0.0,-999.0,58,-99.99,,,0.00,weatherlink.com 1.10,2013-04-10 15:43:00,
2013-04-10 10:58:00,36.2,23.0,30.10,NNE,28,0.0,-999.0,60,-99.99,,,0.00,weatherlink.com 1.10,2013-04-10 15:58:00,
2013-04-10 11:00:00,36.3,23.8,30.10,North,0,3.0,12.0,60,0.00,,SKC,0.00,VWS V14.01,2013-04-10 16:00:00,
2013-04-10 11:13:00,36.2,23.0,30.10,ENE,60,0.0,-999.0,59,-99.99,,,0.00,weatherlink.com 1.10,2013-04-10 16:13:00,
2013-04-10 11:28:00,36.2,23.0,30.10,NNW,341,2.0,-999.0,59,-99.99,,,0.00,weatherlink.com 1.10,2013-04-10 16:28:00,
2013-04-10 11:30:00,36.2,23.3,30.10,NE,45,3.0,15.0,59,0.00,,SKC,0.00,VWS V14.01,2013-04-10 16:30:00,
2013-04-10 11:43:00,36.3,23.0,30.10,NNE,30,0.0,-999.0,59,-99.99,,,0.00,weatherlink.com 1.10,2013-04-10 16:43:00,
2013-04-10 11:58:00,36.6,23.0,30.09,ESE,104,0.0,-999.0,59,-99.99,,,0.00,weatherlink.com 1.10,2013-04-10 16:58:00,
2013-04-10 12:00:00,36.6,23.6,30.10,NE,45,3.0,13.0,59,0.00,,SKC,0.00,VWS V14.01,2013-04-10 17:00:00,
2013-04-10 12:13:00,36.8,23.0,30.09,NNE,15,2.0,-999.0,58,-99.99,,,0.00,weatherlink.com 1.10,2013-04-10 17:13:00,
2013-04-10 12:28:00,36.9,23.0,30.08,East,100,2.0,-999.0,57,-99.99,,,0.00,weatherlink.com 1.10,2013-04-10 17:28:00,
2013-04-10 12:30:00,37.0,23.6,30.08,NNE,22,3.0,15.0,58,0.00,,SKC,0.00,VWS V14.01,2013-04-10 17:30:00,
2013-04-10 12:43:00,37.8,23.0,30.06,NNE,23,0.0,-999.0,56,-99.99,,,0.00,weatherlink.com 1.10,2013-04-10 17:43:00,
2013-04-10 12:58:00,38.6,24.0,30.06,NNW,335,5.0,-999.0,56,-99.99,,,0.00,weatherlink.com 1.10,2013-04-10 17:58:00,
2013-04-10 13:00:00,38.7,23.5,30.06,NNE,22,4.0,20.0,54,0.00,,SKC,0.00,VWS V14.01,2013-04-10 18:00:00,
2013-04-10 13:13:00,39.1,24.0,30.07,East,96,1.0,-999.0,54,-99.99,,,0.00,weatherlink.com 1.10,2013-04-10 18:13:00,
2013-04-10 13:28:00,39.5,23.0,30.06,NNW,333,0.0,-999.0,53,-99.99,,,0.00,weatherlink.com 1.10,2013-04-10 18:28:00,
2013-04-10 13:30:00,39.5,23.8,30.06,NNE,22,4.0,16.0,53,0.00,,SKC,0.00,VWS V14.01,2013-04-10 18:30:00,
2013-04-10 13:43:00,39.5,23.0,30.07,NW,321,0.0,-999.0,52,-99.99,,,0.00,weatherlink.com 1.10,2013-04-10 18:43:00,
2013-04-10 13:58:00,39.4,22.0,30.10,NNW,343,0.0,-999.0,51,-99.99,,,0.00,weatherlink.com 1.10,2013-04-10 18:58:00,
2013-04-10 14:00:00,39.4,22.8,30.10,NNW,338,4.0,18.0,51,0.00,,SKC,0.00,VWS V14.01,2013-04-10 19:00:00,
2013-04-10 14:13:00,39.6,23.0,30.10,North,9,2.0,-999.0,51,-99.99,,,0.00,weatherlink.com 1.10,2013-04-10 19:13:00,
2013-04-10 14:28:00,39.7,22.0,30.10,ENE,63,2.0,-999.0,49,-99.99,,,0.00,weatherlink.com 1.10,2013-04-10 19:28:00,
2013-04-10 14:30:00,39.7,22.1,30.10,North,0,2.0,15.0,49,0.00,,SKC,0.00,VWS V14.01,2013-04-10 19:30:00,
2013-04-10 14:43:00,39.7,21.0,30.09,ESE,109,2.0,-999.0,48,-99.99,,,0.00,weatherlink.com 1.10,2013-04-10 19:43:00,
2013-04-10 14:58:00,39.9,21.0,30.09,NNW,340,1.0,-999.0,48,-99.99,,,0.00,weatherlink.com 1.10,2013-04-10 19:58:00,
2013-04-10 15:00:00,39.9,21.8,30.09,North,0,2.0,9.0,48,0.00,,SKC,0.00,VWS V14.01,2013-04-10 20:00:00,
2013-04-10 15:13:00,39.8,20.0,30.10,East,96,2.0,-999.0,45,-99.99,,,0.00,weatherlink.com 1.10,2013-04-10 20:13:00,
2013-04-10 15:28:00,40.0,21.0,30.10,NE,42,2.0,-999.0,46,-99.99,,,0.00,weatherlink.com 1.10,2013-04-10 20:28:00,
2013-04-10 15:30:00,40.0,20.4,30.10,NE,45,2.0,13.0,45,0.00,,SKC,0.00,VWS V14.01,2013-04-10 20:30:00,
2013-04-10 15:43:00,40.2,20.0,30.08,NNE,28,6.0,-999.0,44,-99.99,,,0.00,weatherlink.com 1.10,2013-04-10 20:43:00,
2013-04-10 15:58:00,40.4,19.0,30.07,ENE,65,8.0,-999.0,43,-99.99,,,0.00,weatherlink.com 1.10,2013-04-10 20:58:00,
2013-04-10 16:00:00,40.4,19.7,30.07,NNE,22,2.0,10.0,43,0.00,,SKC,0.00,VWS V14.01,2013-04-10 21:00:00,
2013-04-10 16:13:00,40.4,19.0,30.06,West,266,0.0,-999.0,42,-99.99,,,0.00,weatherlink.com 1.10,2013-04-10 21:13:00,
2013-04-10 16:28:00,40.5,18.0,30.05,North,5,4.0,-999.0,40,-99.99,,,0.00,weatherlink.com 1.10,2013-04-10 21:28:00,
2013-04-10 16:30:00,40.5,18.1,30.05,NE,45,3.0,13.0,40,0.00,,SKC,0.00,VWS V14.01,2013-04-10 21:30:00,
2013-04-10 16:43:00,40.2,18.0,30.03,East,86,2.0,-999.0,41,-99.99,,,0.00,weatherlink.com 1.10,2013-04-10 21:43:00,
2013-04-10 16:58:00,40.0,17.0,30.03,ENE,71,7.0,-999.0,39,-99.99,,,0.00,weatherlink.com 1.10,2013-04-10 21:58:00,
2013-04-10 17:00:00,40.0,17.1,30.03,East,90,4.0,14.0,39,0.00,,SKC,0.00,VWS V14.01,2013-04-10 22:00:00,
2013-04-10 17:13:00,39.9,16.0,30.04,NE,50,1.0,-999.0,38,-99.99,,,0.00,weatherlink.com 1.10,2013-04-10 22:13:00,
2013-04-10 17:28:00,39.7,16.0,30.03,ENE,75,0.0,-999.0,38,-99.99,,,0.00,weatherlink.com 1.10,2013-04-10 22:28:00,
2013-04-10 17:30:00,39.7,16.8,30.03,ENE,68,3.0,15.0,39,0.00,,SKC,0.00,VWS V14.01,2013-04-10 22:30:00,
2013-04-10 17:43:00,39.7,16.0,30.03,NE,38,3.0,-999.0,38,-99.99,,,0.00,weatherlink.com 1.10,2013-04-10 22:43:00,
2013-04-10 17:58:00,39.6,16.0,30.03,ENE,72,0.0,-999.0,39,-99.99,,,0.00,weatherlink.com 1.10,2013-04-10 22:58:00,
2013-04-10 18:00:00,39.6,16.7,30.03,East,90,3.0,14.0,39,0.00,,SKC,0.00,VWS V14.01,2013-04-10 23:00:00,
2013-04-10 18:13:00,39.6,16.0,30.02,NE,53,2.0,-999.0,39,-99.99,,,0.00,weatherlink.com 1.10,2013-04-10 23:13:00,
2013-04-10 18:28:00,39.6,16.0,30.02,NNE,32,1.0,-999.0,39,-99.99,,,0.00,weatherlink.com 1.10,2013-04-10 23:28:00,
2013-04-10 18:30:00,39.5,16.6,30.02,NNE,22,3.0,10.0,39,0.00,,SKC,0.00,VWS V14.01,2013-04-10 23:30:00,
2013-04-10 18:43:00,39.3,17.0,30.01,NE,56,1.0,-999.0,40,-99.99,,,0.00,weatherlink.com 1.10,2013-04-10 23:43:00,
2013-04-10 18:58:00,39.1,17.0,30.02,NNE,24,2.0,-999.0,40,-99.99,,,0.00,weatherlink.com 1.10,2013-04-10 23:58:00,
2013-04-10 19:00:00,39.0,16.7,30.02,NNE,22,1.0,9.0,40,0.00,,SKC,0.00,VWS V14.01,2013-04-11 00:00:00,
2013-04-10 19:13:00,38.7,17.0,30.02,NE,40,1.0,-999.0,41,-99.99,,,0.00,weatherlink.com 1.10,2013-04-11 00:13:00,
2013-04-10 19:28:00,38.4,17.0,30.00,WNW,302,1.0,-999.0,42,-99.99,,,0.00,weatherlink.com 1.10,2013-04-11 00:28:00,
2013-04-10 19:30:00,38.4,17.3,30.00,ENE,68,1.0,8.0,42,0.00,,SKC,0.00,VWS V14.01,2013-04-11 00:30:00,
2013-04-10 19:43:00,38.1,17.0,29.99,East,81,2.0,-999.0,43,-99.99,,,0.00,weatherlink.com 1.10,2013-04-11 00:43:00,
2013-04-10 19:58:00,37.9,18.0,29.98,NE,53,5.0,-999.0,44,-99.99,,,0.00,weatherlink.com 1.10,2013-04-11 00:58:00,
2013-04-10 20:00:00,37.8,17.9,29.98,NE,45,2.0,11.0,44,0.00,,SKC,0.00,VWS V14.01,2013-04-11 01:00:00,
2013-04-10 20:13:00,37.5,18.0,29.96,NNE,15,4.0,-999.0,45,-99.99,,,0.00,weatherlink.com 1.10,2013-04-11 01:13:00,
2013-04-10 20:28:00,37.2,18.0,29.96,NE,45,3.0,-999.0,46,-99.99,,,0.00,weatherlink.com 1.10,2013-04-11 01:28:00,
2013-04-10 20:30:00,37.2,18.3,29.96,NE,45,2.0,12.0,46,0.00,,SKC,0.00,VWS V14.01,2013-04-11 01:30:00,
2013-04-10 20:43:00,37.1,18.0,29.95,North,5,5.0,-999.0,46,-99.99,,,0.00,weatherlink.com 1.10,2013-04-11 01:43:00,
2013-04-10 20:58:00,36.9,18.0,29.94,ENE,59,2.0,-999.0,47,-99.99,,,0.00,weatherlink.com 1.10,2013-04-11 01:58:00,
2013-04-10 21:00:00,36.9,18.6,29.94,NE,45,2.0,11.0,47,0.00,,SKC,0.00,VWS V14.01,2013-04-11 02:00:00,
2013-04-10 21:13:00,36.8,19.0,29.94,NE,46,4.0,-999.0,49,-99.99,,,0.00,weatherlink.com 1.10,2013-04-11 02:13:00,
2013-04-10 21:29:00,36.7,20.0,29.94,East,90,1.0,-999.0,50,-99.99,,,0.00,weatherlink.com 1.10,2013-04-11 02:29:00,
2013-04-10 21:30:00,36.7,19.8,29.94,NE,45,4.0,13.0,50,0.00,,SKC,0.00,VWS V14.01,2013-04-11 02:30:00,
2013-04-10 21:44:00,36.4,20.0,29.97,ENE,78,5.0,-999.0,51,-99.99,,,0.00,weatherlink.com 1.10,2013-04-11 02:44:00,
2013-04-10 21:59:00,36.3,20.0,29.96,NNE,32,5.0,-999.0,52,-99.99,,,0.00,weatherlink.com 1.10,2013-04-11 02:59:00,
2013-04-10 22:00:00,36.2,20.3,29.96,East,90,2.0,13.0,52,0.00,,SKC,0.00,VWS V14.01,2013-04-11 03:00:00,
2013-04-10 22:14:00,36.1,20.0,29.96,East,85,1.0,-999.0,53,-99.99,,,0.00,weatherlink.com 1.10,2013-04-11 03:14:00,
2013-04-10 22:30:00,36.0,21.0,29.97,NE,45,3.0,13.0,54,0.00,,SKC,0.00,VWS V14.01,2013-04-11 03:30:00,
2013-04-10 22:44:00,36.0,21.0,29.97,NW,317,0.0,-999.0,55,-99.99,,,0.00,weatherlink.com 1.10,2013-04-11 03:44:00,
2013-04-10 22:59:00,36.0,21.0,29.97,North,10,0.0,-999.0,55,-99.99,,,0.00,weatherlink.com 1.10,2013-04-11 03:59:00,
2013-04-10 23:00:00,36.0,21.4,29.97,East,90,2.0,11.0,55,0.00,,SKC,0.00,VWS V14.01,2013-04-11 04:00:00,
2013-04-10 23:14:00,36.1,21.0,29.97,East,95,0.0,-999.0,55,-99.99,,,0.00,weatherlink.com 1.10,2013-04-11 04:14:00,
2013-04-10 23:29:00,36.1,21.0,29.97,NNE,27,0.0,-999.0,54,-99.99,,,0.00,weatherlink.com 1.10,2013-04-11 04:29:00,
2013-04-10 23:30:00,36.1,21.1,29.97,ENE,68,1.0,11.0,54,0.00,,SKC,0.00,VWS V14.01,2013-04-11 04:30:00,
2013-04-10 23:44:00,36.2,21.0,29.97,ENE,59,1.0,-999.0,54,-99.99,,,0.00,weatherlink.com 1.10,2013-04-11 04:44:00,
2013-04-10 23:59:00,36.3,20.0,29.96,NE,55,1.0,-999.0,53,-99.99,,,0.00,weatherlink.com 1.10,2013-04-11 04:59:00,